Location: Go�ngahuizen
(53.0821°N, 5.8849°E)
Time: 22:09:10
(UTC+00:00)

ERBS - Pass Details

Date: 09 April 2020
Orbit: 410 x 426 km, 57.0° (Epoch: 24 May)

Event Time Altitude Azimuth Distance (km) Brightness Sun altitude
Rises 20:08:30 0° 295° (WNW) 2,393 7.8 -14.6°
Reaches altitude 10° 20:10:39 10° 288° (WNW) 1,525 6.3 -14.9°
Maximum altitude 20:13:53 41° 217° (SW) 638 3.1 -15.3°
Enters shadow 20:15:10 28° 168° (SSE) 841 3.3 -15.4°
